Centaur (55576) Amycus
(Preview)
Asteroids 2014
1
1035
Centaur (55576) Amycus (2002 GB10) is at Opposition (17.702 AU) on the 17th June 2014 Ephemeris Date TT R. A. (2000) Decl. Delta r Elong. Phase Mag
2014 06 15 17 40 38.7 -34 12 36 17.7001 18.6979 168.9 0.6 20.5
2014 06 16 17 40 26.8 -34 12 25 17.7009 18.6993 169.1 0.6 20.5
2014 06 17 17 40 14.8 -34 12 13 17.70...
Asteroid (129) Antigone
(Preview)
Solar System
7
1142
Asteroid (129) Antigone is at opposition on the 4th June, 2010. (V = 9.9) Ephemeris Date TT R. A. (2000) Decl. Delta r Elong. Phase V 2010 06 05 16 47.07 -02 29.3 1.282 2.263 160.0 8.8 9.9 2010 06 10 16 43.06 -02 42.7 1.288 2.264 158.6 ...
Sun 21.06.15
(Preview)
Solar 2015
0
411
Solar Storm Forecast 06-21-2015
Asteroid 2007 YN56
(Preview)
Asteroids 2015
0
355
The 67 - 150 metre wide asteroid 2007 YN56 will make a close pass (53.4 LD, 0.1373 AU) travelling at 9.37 km/second, to the Earth-Moon system on the 22nd June 2015 @ 03:22 UT ±1 day 03:53. See more The Lunar Distance (LD), the distance between Earth and the Moon, equals 384,401 km, (or 0.00256 AU).
Centaur (10370) Hylonome
(Preview)
Asteroids 2014
1
1016
Centaur (10370) Hylonome (1995 DW2) is at Opposition (21.719 AU) on the 18th June 2014. Ephemeris Date TT R. A. (2000) Decl. Delta r Elong. Phase Mag
2014 06 17 17 44 16.7 -19 03 07 21.7183 22.7313 175.6 0.2 22.1
2014 06 18 17 44 07.8 -19 03 04 21.7190 22.7322 175.7 0.2 22.1
2014 06 19 17 43 58.9 -19 03 00 21....
Comet P/2011 W2 (RINNER)
(Preview)
Comets
4
1588
Orbital elements:
P/2011 W2 (Rinner)
T 2011 Oct. 10.61611 TT MPC
q 2.3155627 (2000.0) P Q
n 0.09534921 Peri. 210.50411 +0.11249438 -0.97375139
a 4.7452378 Node 233.75774 +0.95400674 +0.16153178
e 0.5120239 Incl. 14.20186 +0.27787796 -0.16036122
P 10.3
From 48 observations 2011 Nov....
June 22nd
(Preview)
June
8
4243
Meteorites http://astronomy.activeboard.com/t43510625/ploschkovitz-meteorite/
Monkton Farleigh sun-disc
(Preview)
Off Topic
0
483
'Rare sun disc' on show in Wiltshire for first time to mark solstice A rare gold sun-disc discovered 32km from Stonehenge has gone on display to mark the summer solstice. The early Bronze Age disc, thought to represent the sun, is on show for the first time at the Wiltshire Museum. Unearthed at Monkton...
Cromlech Tumulus
(Preview)
Off Topic
0
320
Excavating the Cromlech Tumulus on on Slievemore Mountain, on Achill Island, Ireland Cromlech Tumulus 2015: Week 1 Spoiler Read more
Asteroid 2015 LP21
(Preview)
Asteroids 2015
0
478
The 35 - 78 metre wide asteroid 2015 LP21 will make a close pass (35.0 LD, 0.0900 AU) travelling at 9.28 km/second, to the Earth-Moon system on the 21st June 2015 @ 03:22 UT ±00:05. See more The Lunar Distance (LD), the distance between Earth and the Moon, equals 384,401 km, (or 0.00256 AU).
Asteroid 2010 LN14
(Preview)
Solar System
3
1062
Orbital elements: 2010 LN14 PHA, Earth MOID = 0.0183 AU Epoch 2010 July 23.0 TT = JDT 2455400.5 MPC M 324.81057 (2000.0) P Q n 0.82010510 Peri. 31.64137 +0.95544789 -0.29509199 a 1.1303763 Node 345.51759 +0.26524975 +0.86783389 e 0.4551985 Incl. 1.44992 +0.12946772 +0.39973124 P 1.20 H 21.5 G 0.1...
June 21st
(Preview)
June
8
3085
Meteorites http://astronomy.activeboard.com/t54110422/clohars-meteorite/
Mars Odyssey orbiter
(
1 2 3
)
(Preview)
Mission News
20
12169
The Mars Odyssey orbiter was in safe mode Monday after a computer glitch prevented the 6-year-old spacecraft from relaying data from the twin rovers rolling across the Martian surface. Project leaders said the Mars Odyssey was not in danger. Engineers discovered the problem Friday after a softwa...
UGC 11411
(Preview)
Galaxies
0
649
Hubble's True Blue Compact Dwarf BCD galaxies are about a tenth of the size of a typical spiral galaxy such as the Milky Way and are made up of large clusters of hot, massive stars that ionize the surrounding gas with their intense radiation. Because these stars are so hot they glow brightly with a blue h...
MWC 560
(Preview)
Stars/galaxy News
1
806
Title: Orbital eccentricity of the symbiotic star MWC 560 Authors: R. K. Zamanov, A. Gomboc, K. A. Stoyanov, I. K. Stateva We present projected rotational velocity measurements of the red giant in the symbiotic star MWC 560 (V694 Mon), using the high-resolution spectroscopic observations with t...
«First < 1
323 324 325 326 327
2461 > Last» | Page
